[[{"header":{"parameterUnit":"m.s-1","parameterCategory":1,"la1":30.2991,"la2":30.254,"lo1":-89.0895,"lo2":-89.0444,"dx":0.0017,"dy":0.0017,"nx":28,"ny":28,"refTime":"2023-01-21T15:00:00:Z","depth":0,"parameterNumber":2,"parameterNumberName":"U-component_of_WINDS"},"data":[0,0,0,0,0,0,0,0,0,0,0,0,0,0,0,0,0,0,0,0,0,0,0,0,0,0,0,0,0,0,0,0,0,0,0,0,0,0,0,0,0,0,0,0,0,0,0,0,0,0,0,0,0,0,0,0,0,0,4.511,4.511,0,4.5067,4.5066,4.5066,4.5003,4.5002,4.5001,4.5,4.4955,4.4955,4.4955,0,0,0,0,0,0,0,0,0,0,0,0,0,4.5141,4.5141,4.511,4.511,4.5109,4.5067,4.5066,4.5066,4.5003,4.5002,4.5001,4.5,4.4955,4.4955,4.4955,0,0,0,0,0,0,0,0,0,0,0,0,0,4.5116,4.5141,4.511,4.5073,4.5069,4.5067,4.5066,4.5065,4.5004,4.5002,4.5,4.4999,4.4955,4.4955,4.4955,4.4985,0,0,4.4954,4.4954,0,0,0,0,0,0,0,0,4.5117,4.5115,4.5079,4.5076,4.5071,4.5039,4.506,4.5039,4.5004,4.5029,4.5,4.4998,4.4984,4.4981,4.4977,4.4983,4.4981,4.4954,4.4954,4.4953,4.4953,0,0,0,0,0,0,0,4.5119,4.5116,4.5093,4.5079,4.5074,4.5059,4.5054,4.5056,4.5016,4.5026,4.5022,4.5017,4.4982,4.4977,4.4975,4.498,4.4954,4.4954,4.4953,4.4953,4.5012,4.5014,0,0,0,0,0,0,4.5126,4.5118,4.5094,4.5092,4.5091,4.506,4.5054,4.5051,4.5016,4.5009,4.5019,4.5015,4.4979,4.4976,4.4973,4.5008,4.4953,4.4953,4.4953,4.501,4.5012,4.5014,0,0,0,0,0,0,4.5127,4.5125,4.5096,4.5104,4.5099,4.5061,4.5058,4.5051,4.5046,4.501,4.5003,4.5022,4.4977,4.4974,4.4983,4.5006,4.4953,4.4953,4.5008,4.5011,4.5013,4.5078,0,0,0,0,0,0,4.5128,4.5125,4.5136,4.5104,4.5099,4.5107,4.506,4.5051,4.5046,4.504,4.5011,4.5004,4.4976,4.4984,4.4983,4.5005,4.4953,4.5006,4.5009,4.5013,4.5073,4.5082,4.509,0,0,0,0,0,4.513,4.5155,4.5137,4.5134,4.5111,4.5108,4.5105,4.5071,4.5048,4.5059,4.5036,4.5005,4.5004,4.4986,4.4984,4.5006,4.5005,4.5009,4.5012,4.507,4.5081,4.509,0,0,0,0,0,0,4.519,4.515,4.513,4.5146,4.5131,4.5097,4.511,4.5083,4.5075,4.5069,4.5028,4.5022,4.5038,4.5022,4.5003,4.5035,4.5,4.5003,4.5044,4.5054,4.5062,4.5065,4.4952,0,0,0,0,0,4.5205,4.5206,4.5171,4.5189,4.5183,4.5148,4.5145,4.5121,4.5104,4.5097,4.5075,4.5059,4.5055,4.5054,4.5048,4.5071,4.5065,4.5085,4.5094,4.5101,4.5104,4.5118,4.5127,4.5027,4.5027,4.5027,0,0,4.5237,4.5215,4.5218,4.5201,4.5186,4.5188,4.5143,4.5146,4.5148,4.5097,4.5105,4.5089,4.5069,4.5086,4.5092,4.5074,4.5131,4.5106,4.5111,4.5111,4.5123,4.5132,4.514,4.503,4.5029,4.5029,0,0,4.5296,4.5279,4.5293,4.528,4.5259,4.5236,4.5239,4.521,4.5198,4.5205,4.5168,4.5169,4.5163,4.5151,4.5144,4.5201,4.5173,4.5201,4.5243,4.5257,4.5265,4.5271,4.5293,4.5301,4.5205,4.5205,4.5205,0,4.5337,4.5339,4.5303,4.531,4.5304,4.5259,4.5274,4.5263,4.5241,4.5239,4.5218,4.5211,4.5194,4.5209,4.5223,4.5219,4.5222,4.5204,4.5266,4.5273,4.5279,4.5299,4.5307,4.5208,4.5208,4.5208,4.5207,0,4.5392,4.5394,4.5407,4.5389,4.5384,4.5395,4.5362,4.5362,4.5339,4.5318,4.5328,4.5307,4.5297,4.5299,4.5275,4.5311,4.53,4.5274,4.5238,4.5292,4.5311,4.5318,4.5213,4.5212,4.5211,4.521,0,0,4.5486,4.5449,4.5455,4.5447,4.5422,4.5422,4.5432,4.5423,4.5424,4.5412,4.5419,4.5416,4.5392,4.5385,4.536,4.5372,4.5421,4.5344,4.5343,4.536,4.546,4.5481,4.549,4.5402,4.5403,4.5404,4.5462,0,4.554,4.5554,4.5524,4.5545,4.5547,4.5506,4.5514,4.55,4.5482,4.5482,4.5461,4.5461,4.5428,4.5424,4.5434,4.5413,4.544,4.5408,4.5409,4.541,4.5416,4.5499,4.552,4.5576,4.5469,4.547,4.5471,0,4.5605,4.5597,4.5619,4.5595,4.5594,4.5602,4.5593,4.5593,4.5577,4.5563,4.5556,4.5527,4.5536,4.5502,4.5513,4.5492,4.5491,4.5481,4.5483,4.5482,4.5444,4.5502,4.5593,4.5602,4.5482,4.5481,4.548,0,4.5674,4.5668,4.5681,4.5675,4.5646,4.5653,4.5642,4.5624,4.5621,4.5613,4.5611,4.5604,4.5601,4.5596,4.5568,4.5545,4.5584,4.5546,4.5573,4.5574,4.5583,4.5583,4.5676,4.5581,4.5581,4.5581,4.5581,0,4.5738,4.5753,4.5711,4.5719,4.5736,4.5701,4.5719,4.5703,4.5688,4.5693,4.5657,4.5663,4.5624,4.5626,4.5603,4.5617,4.5616,4.5605,4.5599,4.5609,4.561,4.5608,4.5603,4.5583,4.5583,4.5582,4.5582,0,4.5817,4.5789,4.5801,4.5774,4.5767,4.5781,4.5758,4.5765,4.5745,4.5752,4.5751,4.572,4.5721,4.5692,4.5685,4.5671,4.5695,4.5681,4.5701,4.5697,4.5725,4.5724,4.5821,4.5832,4.573,4.5731,4.5732,0,4.586,4.5871,4.5846,4.5847,4.5837,4.5839,4.5836,4.5803,4.5802,4.5786,4.5796,4.5793,4.5789,4.5792,4.5769,4.5765,4.5752,4.5786,4.5751,4.5761,4.5753,4.5754,4.5755,4.5794,4.5795,4.5796,4.5797,0,4.594,4.5926,4.5924,4.5918,4.5917,4.591,4.5901,4.5904,4.5868,4.5869,4.5869,4.5867,4.5862,4.586,4.5852,4.5841,4.5814,4.5808,4.5814,4.5825,4.5836,4.5831,4.5722,4.5806,4.5805,4.5805,4.5804,4.5804,4.6003,4.6011,4.5996,4.5995,4.5985,4.5978,4.5984,4.5966,4.5965,4.5959,4.594,4.5944,4.5929,4.5916,4.5907,4.591,4.5893,4.5902,4.5904,4.5907,4.5913,4.5835,4.5909,4.5908,4.5908,4.5908,4.5908,0,4.6082,4.607,4.607,4.6059,4.606,4.6034,4.6024,4.6026,4.603,4.6019,4.6016,4.6018,4.6017,4.5995,4.5991,4.5998,4.5986,4.5999,4.5998,4.5996,4.5928,4.5923,4.6009,4.6009,4.6009,4.6009,4.6009,4.6009,4.6123,4.6137,4.6122,4.6131,4.6119,4.6123,4.612,4.6114,4.6105,4.6108,4.6108,4.6094,4.6079,4.6074,4.6073,4.6066,4.6067,4.6084,4.6074,4.6011,4.6001,4.5991,4.5987,4.6085,4.6085,4.6142,4.6143,4.6143]},{"header":{"parameterUnit":"m.s-1","parameterCategory":1,"la1":30.2991,"la2":30.254,"lo1":-89.0895,"lo2":-89.0444,"dx":0.0017,"dy":0.0017,"nx":28,"ny":28,"refTime":"2023-01-21T15:00:00:Z","depth":0,"parameterNumber":3,"parameterNumberName":"V-component_of_WINDS"},"data":[0,0,0,0,0,0,0,0,0,0,0,0,0,0,0,0,0,0,0,0,0,0,0,0,0,0,0,0,0,0,0,0,0,0,0,0,0,0,0,0,0,0,0,0,0,0,0,0,0,0,0,0,0,0,0,0,0,0,0.4705,0.4708,0,0.5016,0.502,0.5023,0.5116,0.5115,0.5113,0.5112,0.5443,0.5453,0.5463,0,0,0,0,0,0,0,0,0,0,0,0,0,0.4203,0.4212,0.4705,0.4708,0.4712,0.5016,0.502,0.5024,0.5117,0.5115,0.5113,0.5111,0.544,0.5452,0.5464,0,0,0,0,0,0,0,0,0,0,0,0,0,0.4458,0.4214,0.4704,0.4795,0.4806,0.5015,0.502,0.5025,0.5117,0.5115,0.5112,0.511,0.5436,0.5451,0.5466,0.5611,0,0,0.5513,0.552,0,0,0,0,0,0,0,0,0.4444,0.4477,0.4778,0.4789,0.4802,0.5025,0.4965,0.5222,0.5118,0.4999,0.5112,0.5109,0.5307,0.5333,0.5397,0.5626,0.5641,0.5515,0.5524,0.5531,0.5535,0,0,0,0,0,0,0,0.4426,0.4464,0.4828,0.4782,0.4797,0.4824,0.4858,0.5014,0.5164,0.501,0.5017,0.5052,0.5313,0.5382,0.5405,0.5646,0.5514,0.5528,0.5538,0.5544,0.6015,0.6018,0,0,0,0,0,0,0.4391,0.4449,0.4818,0.4838,0.4613,0.4835,0.4873,0.4956,0.5162,0.5191,0.5054,0.5055,0.5356,0.5387,0.5417,0.5604,0.5531,0.5545,0.5554,0.6012,0.6015,0.6019,0,0,0,0,0,0,0.438,0.4423,0.4806,0.4645,0.4696,0.4846,0.4939,0.4963,0.5032,0.5195,0.5223,0.5095,0.5356,0.5396,0.5562,0.5617,0.5552,0.5566,0.6008,0.6013,0.6017,0.5976,0,0,0,0,0,0,0.4365,0.4418,0.4472,0.4646,0.4704,0.4941,0.4942,0.4971,0.5057,0.5062,0.5242,0.527,0.5357,0.5539,0.5578,0.5637,0.5579,0.6004,0.601,0.6016,0.5973,0.5978,0.5983,0,0,0,0,0,0.4347,0.445,0.4474,0.4518,0.4773,0.4944,0.4978,0.5073,0.5061,0.5118,0.5224,0.5264,0.5603,0.5555,0.56,0.5664,0.6001,0.6008,0.6015,0.5971,0.5977,0.5983,0,0,0,0,0,0,0.4282,0.4474,0.4503,0.4664,0.4787,0.4959,0.5034,0.5076,0.5208,0.5207,0.5323,0.5363,0.5523,0.561,0.5552,0.5818,0.5804,0.582,0.5755,0.5763,0.5767,0.5745,0.5592,0,0,0,0,0,0.4286,0.4404,0.4567,0.4694,0.4753,0.4883,0.4961,0.5023,0.5156,0.521,0.5327,0.5459,0.5596,0.5684,0.5818,0.5985,0.6029,0.6052,0.6057,0.606,0.6075,0.6174,0.6188,0.6042,0.6042,0.6042,0,0,0.4296,0.4416,0.4484,0.4684,0.4786,0.4911,0.4926,0.5057,0.5152,0.5231,0.5396,0.5486,0.5641,0.5809,0.5889,0.5887,0.6124,0.607,0.6071,0.6084,0.6183,0.6197,0.6209,0.6047,0.6046,0.6046,0,0,0.438,0.448,0.4598,0.4699,0.4853,0.4938,0.4966,0.5133,0.5196,0.5361,0.5424,0.5541,0.5773,0.5882,0.5967,0.6093,0.6137,0.6134,0.6162,0.6258,0.6269,0.628,0.633,0.6345,0.6147,0.6147,0.6147,0,0.4375,0.4561,0.4654,0.4782,0.487,0.4943,0.5067,0.5162,0.5353,0.5415,0.5408,0.5703,0.5812,0.6008,0.6039,0.6104,0.6145,0.6116,0.6259,0.6271,0.6283,0.6331,0.6349,0.6146,0.6146,0.6146,0.6146,0,0.4549,0.4678,0.4755,0.4934,0.5031,0.5156,0.5273,0.5361,0.5414,0.5502,0.5673,0.5806,0.597,0.6021,0.6076,0.6228,0.6222,0.6235,0.6225,0.6294,0.6342,0.6361,0.6144,0.6144,0.6145,0.6145,0,0,0.4602,0.483,0.4858,0.4942,0.5116,0.522,0.535,0.5507,0.5582,0.5712,0.5828,0.6023,0.6037,0.6134,0.6202,0.6286,0.6382,0.6291,0.6296,0.6307,0.6563,0.6554,0.6573,0.6411,0.6415,0.6418,0.6551,0,0.4711,0.4942,0.503,0.5221,0.5344,0.5416,0.553,0.5653,0.5738,0.5859,0.5956,0.6093,0.6099,0.6159,0.6244,0.6352,0.6436,0.6343,0.6526,0.6531,0.6488,0.6598,0.6589,0.6708,0.657,0.6573,0.6576,0,0.4868,0.4996,0.5198,0.536,0.5415,0.5515,0.5669,0.5781,0.5923,0.598,0.6088,0.6151,0.6296,0.6273,0.6478,0.6412,0.6492,0.6557,0.6564,0.6588,0.656,0.6629,0.6748,0.6767,0.6605,0.6603,0.6601,0,0.4891,0.5114,0.5265,0.5333,0.5525,0.5595,0.5679,0.5818,0.5908,0.6043,0.6104,0.6255,0.6339,0.6457,0.6561,0.6534,0.6758,0.6742,0.6814,0.6812,0.6861,0.6857,0.6999,0.6905,0.6905,0.6904,0.6904,0,0.5005,0.5127,0.5278,0.5371,0.5511,0.5614,0.5752,0.5841,0.5965,0.608,0.6152,0.626,0.6389,0.6516,0.6598,0.6758,0.6794,0.6849,0.687,0.6845,0.6838,0.6902,0.6898,0.6909,0.6908,0.6907,0.6906,0,0.5055,0.516,0.533,0.5497,0.5542,0.5639,0.5785,0.5881,0.5969,0.6115,0.6155,0.6296,0.6449,0.6563,0.6762,0.6818,0.6989,0.7009,0.694,0.6952,0.7019,0.7012,0.7209,0.7243,0.7122,0.7123,0.7123,0,0.5122,0.5218,0.5395,0.5475,0.5558,0.5687,0.5778,0.5884,0.5978,0.6148,0.6224,0.6381,0.6512,0.6753,0.6877,0.703,0.7058,0.7116,0.7082,0.7054,0.7065,0.7059,0.7072,0.7122,0.7123,0.7123,0.7124,0,0.5232,0.528,0.5406,0.5553,0.5659,0.578,0.5903,0.5966,0.6095,0.6197,0.6351,0.6453,0.6655,0.6812,0.6977,0.707,0.7121,0.7133,0.7159,0.7136,0.7093,0.7122,0.6957,0.7129,0.7128,0.7128,0.7128,0.7128,0.5297,0.5386,0.5525,0.5665,0.5768,0.5881,0.598,0.608,0.621,0.638,0.6435,0.6597,0.6741,0.6968,0.7062,0.7194,0.7195,0.723,0.7241,0.7249,0.7249,0.7068,0.7224,0.7224,0.7224,0.7224,0.7224,0,0.5414,0.5506,0.5634,0.5802,0.5914,0.5946,0.6084,0.6177,0.6317,0.6445,0.6572,0.6752,0.6905,0.704,0.72,0.728,0.7308,0.7319,0.7317,0.7338,0.7237,0.7201,0.7294,0.7294,0.7294,0.7294,0.7294,0.7294,0.5488,0.5642,0.5706,0.5914,0.6008,0.6163,0.624,0.6347,0.645,0.6647,0.6773,0.6858,0.6991,0.7162,0.7306,0.7342,0.74,0.7406,0.7449,0.7353,0.7345,0.7337,0.7304,0.7417,0.7417,0.754,0.7541,0.7542]}]]